Regional Weather Roundup
Issued by NWS

Home | Current Version | Previous Version | Graphics & Text | Print | Product List | Glossary On
Versions: 1 2 3 4 5 6 7 8 9 10 11 12 13 14 15 16 17 18 19 20 21 22 23 24 25 26 27 28 29 30 31 32 33 34 35 36 37 38 39 40 41 42 43 44 45 46 47 48 49 50
000
ASUS45 KTFX 170619
RWRMT
MONTANA HOURLY WEATHER ROUNDUP
NATIONAL WEATHER SERVICE GREAT FALLS MT
1219 AM MDT THU APR 17 2014

NOTE: "FAIR" INDICATES FEW OR NO CLOUDS BELOW 12000 FEET WITH NO
SIGNIFICANT WEATHER AND/OR OBSTRUCTIONS TO VISIBILITY.

* THESE STATIONS ARE NOT UNDER NWS QUALITY CONTROL. THEY DO NOT
   REPORT WEATHER SUCH AS PRECIPITATION OR FOG.

MTZ001>007-043-170700-
WEST OF THE DIVIDE
CITY           SKY/WX    TMP DP  RH WIND       PRES   REMARKS
KALISPELL      CLOUDY    43  34  71 S8        29.95F
MISSOULA       CLOUDY    43  34  71 E3        29.99F
BUTTE          CLOUDY    36  21  54 S6        29.99S WCI  31
MULLAN PASS    FOG       30  30 100 SW5       29.95S VSB 1 1/4 WCI  25
* ESSEX        N/A       35  32  89 N/A        N/A
* LINCOLN      N/A       33  29  85 SE1        N/A
* LOOKOUT PASS N/A       35  34  96 N/A        N/A
* POLSON       N/A       39  33  79 S2         N/A
* RONAN APT    CLOUDY    43  36  76 N/A        N/A
* SEELEY LAKE  N/A       35  31  85 N/A        N/A
* THOMP F APT  CLOUDY    32  13  45 N4         N/A
$$

MTZ008-052>055-170700-
SOUTHWEST MONTANA
CITY           SKY/WX    TMP DP  RH WIND       PRES   REMARKS
BOZEMAN        CLOUDY    39  28  65 S8        29.99S WCI  33
DILLON         PTCLDY    36  16  44 SE6       29.98S WCI  31
W YELLOWSTONE  N/A       33  20  59 N/A        N/A
* THREE FORKS  CLOUDY    41  27  58 N/A        N/A
* BOULDER HILL N/A       37  21  52 SW4        N/A
* MONIDA PASS  N/A       33  16  50 N/A        N/A
* RAYNOLDS PAS N/A       33  13  44 S1         N/A
* WHITEHALL    N/A       38  19  46 NW6        N/A   WCI  33
* WISE RIVER   N/A       32  21  64 S4         N/A
$$

MTZ009>010-012-014-046-048-049-054-170700-
EAST SLOPES AND CENTRAL MONTANA
CITY           SKY/WX    TMP DP  RH WIND       PRES   REMARKS
CUT BANK       PTCLDY    32  30  92 SE8       29.91F WCI  25
GREAT FALLS    PTCLDY    32  30  92 S8        29.94F WCI  25
HELENA         CLOUDY    39  27  62 CALM      29.96F
MALMSTROM AFB  PTCLDY    34  30  85 SE10      29.92F WCI  26
* CONRAD       PTCLDY    37  34  89 E10G18     N/A   WCI  30
* DEARBORN     N/A       36  30  79 S4         N/A
* EAST GLACIER N/A       35  29  79 W17        N/A   WCI  25
* MONARCH      N/A       30  27  89 S4         N/A
* PENDROY      N/A       32  32 100 S7         N/A   WCI  25
* ROGERS PASS  N/A       35  25  67 SE6G18     N/A   WCI  30
* SAINT MARY   N/A       36  29  76 S7G13      N/A   WCI  30
* SWEET GRASS  N/A       33  33 100 S18        N/A   WCI  22
* WHITE SULPH  N/A       33  29  85 NE7G13     N/A   WCI  27
$$

MTZ011-013-016-021-035-040-045-047-050-051-170700-
NORTH CENTRAL MONTANA
CITY           SKY/WX    TMP DP  RH WIND       PRES   REMARKS
HAVRE          PTCLDY    30  23  75 NE13      30.00F WCI  20
LEWISTOWN      CLOUDY    32  30  92 SE5       30.00F WCI  27
* CHINOOK      CLEAR     30  21  69 E16G21    30.05F WCI  19
* FORT BENTON  PTCLDY    39  32  76 E3        29.98F
* MALTA APT    PTCLDY    30  18  61 E10G18    30.08F WCI  21
* CHESTER      N/A       37  31  79 SE11G16    N/A   WCI  29
* DENTON       N/A       36  33  89 SE14       N/A   WCI  27
* GEYSER       N/A       29  28  96 W4         N/A
* JUDITH GAP   N/A       32  31  96 S14        N/A   WCI  22
* LOMA         N/A       36  31  82 E11        N/A   WCI  28
$$

MTZ017>020-022>027-061-062-170700-
NORTHEAST MONTANA
CITY           SKY/WX    TMP DP  RH WIND       PRES   REMARKS
GLASGOW        CLEAR     25  19  78 E16       30.15F WCI  12
GLENDIVE       CLOUDY    28  21  75 E8        30.20S WCI  20
JORDAN         PTCLDY    30  21  69 E10       30.12S WCI  21
SIDNEY         CLOUDY    28  19  69 E8        30.25S WCI  20
WOLF POINT     CLOUDY    30  19  64 E12       30.22F WCI  20
* BEAVER HILL  N/A       27  21  78 E14        N/A   WCI  16
* CIRCLE       N/A       28  22  78 NE7G12     N/A   WCI  21
* LINDSAY DVD  N/A       25  21  85 E12        N/A   WCI  14
* NAVAJO       N/A       24  19  81 SE12       N/A   WCI  13
* SACO         N/A       27  18  69 E16        N/A   WCI  15
$$

MTZ028>042-056>058-170700-
SOUTHCENTRAL AND SOUTHEAST MONTANA
CITY           SKY/WX    TMP DP  RH WIND       PRES   REMARKS
BAKER          CLOUDY    28  23  81 SE17      30.16S WCI  16
BILLINGS       MOCLDY    36  30  79 NE6       30.05F WCI  31
LIVINGSTON     CLOUDY    37  32  82 SE7       30.00S WCI  32
MILES CITY     CLOUDY    34  25  70 NE12      30.13S WCI  25
* LAUREL APT   MOCLDY    36  25  64 N5         N/A   WCI  32
* ROUNDUP APT  CLOUDY    36  30  79 N/A        N/A
* HYSHAM       N/A       35  24  64 E6         N/A   WCI  30
* LAME DEER    N/A       31  26  82 SE5        N/A   WCI  26
* REED POINT   N/A       37  35  92 E4         N/A
* ROSCOE HILL  N/A       31  26  82 S2         N/A
$$

REGIONAL REPORTS...DAKOTAS
CITY           SKY/WX    TMP DP  RH WIND       PRES   REMARKS
WILLISTON      MOCLDY   N/A N/A N/A N/A       30.27S
DICKINSON      CLOUDY    27  19  72 E6        30.20R WCI  20
CROSBY         CLOUDY    27  18  69 E12       30.29S WCI  16
TIOGA          CLOUDY    25  25 100 E8        30.29R WCI  16
WATFORD CITY   CLOUDY    27  23  85 E6        30.23F WCI  20
BISMARCK       CLOUDY    28  16  61 E6        30.28R WCI  21
GRAND FORKS    CLEAR     25  19  78 N7        30.27R WCI  17
FARGO          CLEAR     28  18  66 N10       30.25R WCI  19
BUFFALO SD     CLOUDY    28  25  89 E12       30.10S WCI  18
RAPID CITY     CLOUDY    30  25  82 S6        30.17S WCI  24
$$

REGIONAL REPORTS...WYOMING/IDAHO/WASHINGTON
CITY           SKY/WX    TMP DP  RH WIND       PRES   REMARKS
GILLETTE       PTCLDY    32  28  85 S7        30.07R WCI  25
SHERIDAN       CLOUDY    34  30  85 SE5       30.06S WCI  29
CODY           PTCLDY    30  27  89 S5        30.02S WCI  25
YELLOWSTONE LA PTCLDY    25  16  69 CALM      30.04S
SALMON         CLEAR     37  19  48 CALM      29.99R
MULLAN PASS    FOG       30  30 100 SW5       29.95S VSB 1 1/4 WCI  25
SAND POINT     CLOUDY    43  43 100 CALM      29.97S
SPOKANE        MOCLDY    46  39  77 S8        29.94F
$$

REGIONAL REPORTS...ALBERTA
CITY           SKY/WX    TMP DP  RH WIND       PRES   REMARKS
CALGARY        FOG       28  27  96 SE14      29.91F WCI  17
LETHBRIDGE     CLOUDY    34  34 100 E3        29.91F
MEDICINE HAT   FRZ RAIN  36  32  85 SE17G26   29.98S WCI  26
EDMONTON       LGT SNOW  27  23  85 SE21      29.96F WCI  13
WATERTON GATE  N/A       28  28 100 N3         N/A
CARDSTON       N/A       28  28 100 NW6        N/A   WCI  21
MILK RIVER     N/A       34  32  92 S12        N/A   WCI  25
$$

REGIONAL REPORTS...SASKATCHEWAN
CITY           SKY/WX    TMP DP  RH WIND       PRES   REMARKS
SWIFT CURRENT  CLOUDY    25  21  85 SE17G23   30.10S WCI  12
REGINA         N/A       21  19  92 SE8       30.28S WCI  11
VAL MARIE      N/A       25  18  75 SE13       N/A   WCI  13
ASSINIBOIA     N/A       27  19  72 SE12       N/A   WCI  16
CORONACH       N/A       25  19  78 SE13       N/A   WCI  13

$$




USA.gov is the U.S. government's official web portal to all federal, state and local government web resources and services.